Voltar ao catálogo

CZ-6A DEB

AtivoSSO
NORAD 54524·DEBRIS·🇨🇳 China

Lançado Nov 11, 2022 de Taiyuan Satellite Launch Center

Loading…

Próximas Passagens (próximas 24 horas)

TLE

AtualizadoSource: Space-Track

Época: Sep 14, 2026, 13:27 UTC

1 54524U 22151KC  26257.56076344  .00003370  00000-0  65915-3 0  9990
2 54524  98.4570 293.1913 0086155 358.5125   1.5806 14.61211547202935

Acompanhe CZ-6A DEB em tempo real com AllMySat

Download on the App Store